Meridian NAS, MS

7:34 PM CDT on June 25, 2017 (GMT -0500)
Meridian Naval Air Station

Weather History for KNMM - December, 2012

Change the Weather History Date:

Saturday, December 1, 2012

  Actual Average Record
Temperature  
Mean Temperature 56 °F -  
Max Temperature 72 °F 60 °F 75 °F (1998)
Min Temperature 39 °F 39 °F 25 °F (2011)
Degree Days  
Heating Degree Days 10    
Growing Degree Days 6 (Base 50)    
Moisture  
Dew Point 48 °F    
Average Humidity 80    
Maximum Humidity 96    
Minimum Humidity 48    
Precipitation  
Precipitation 0.00 in - - ()
Sea Level Pressure  
Sea Level Pressure 30.28 in    
Wind  
Wind Speed 2 mph (SSE)    
Max Wind Speed 9 mph    
Max Gust Speed -    
Visibility 8 miles    
Events      
Averages and records for this station are not official NWS values.
T = Trace of Precipitation, MM = Missing Value Source: NWS Daily Summary

Daily Weather History Graph

Daily Weather History Graph

Search for Another Location

Airport or City:

Trip Planner

Search our weather history database for the weather conditions in past years. The results will help you decide how hot, cold, wet, or windy it might be!

Date:

Astronomy

Dec. 01, 2012 Rise Set
Actual Time 6:38 AM CST 4:48 PM CST
Civil Twilight 6:11 AM CST 5:15 PM CST
Nautical Twilight 5:41 AM CST 5:45 PM CST
Astronomical Twilight 5:11 AM CST 6:15 PM CST
Moon 7:35 PM CST (12/1) 8:53 AM CST (12/1)
Length of Visible Light 11h 03m
Length of Day
10h 09m
Waning Gibbous, 91% of the Moon is Illuminated
Dec 1
Waning Gibbous
Dec 6
Last Quarter
Dec 13
New
Dec 19
First Quarter
Dec 28
Full

Hourly Weather History & Observations

Time (CST) Temp. Dew Point Humidity Pressure Visibility Wind Dir Wind Speed Gust Speed Precip Events Conditions
12:56 AM 41.0 °F 39.0 °F 93% 30.27 in 9.0 mi Calm Calm - N/A   Clear
1:56 AM 39.9 °F 37.9 °F 93% 30.29 in 9.0 mi Calm Calm - N/A   Clear
2:41 AM 41.0 °F 39.2 °F 93% 30.25 in 7.0 mi Calm Calm - N/A   Scattered Clouds
2:49 AM 41.0 °F 39.2 °F 93% 30.25 in 3.0 mi Calm Calm - N/A   Mostly Cloudy
2:56 AM 41.0 °F 39.0 °F 93% 30.28 in 2.0 mi Calm Calm - N/A   Mostly Cloudy
3:56 AM 39.9 °F 37.9 °F 93% 30.28 in 7.0 mi Calm Calm - N/A   Clear
4:56 AM 39.0 °F 37.9 °F 96% 30.29 in 8.0 mi Calm Calm - N/A   Mostly Cloudy
5:56 AM 39.9 °F 37.9 °F 93% 30.30 in 7.0 mi Calm Calm - N/A   Mostly Cloudy
6:56 AM 41.0 °F 39.0 °F 93% 30.32 in 6.0 mi Calm Calm - N/A   Mostly Cloudy
7:56 AM 46.0 °F 43.0 °F 89% 30.33 in 4.0 mi Calm Calm - N/A   Partly Cloudy
8:10 AM 46.4 °F 44.6 °F 93% 30.29 in 4.0 mi Calm Calm - N/A   Mostly Cloudy
8:56 AM 51.1 °F 46.9 °F 86% 30.34 in 6.0 mi Calm Calm - N/A   Mostly Cloudy
9:41 AM 57.2 °F 51.8 °F 82% 30.31 in 9.0 mi SE 4.6 mph - N/A   Overcast
9:56 AM 57.9 °F 52.0 °F 81% 30.35 in 9.0 mi SE 5.8 mph - N/A   Overcast
10:37 AM 62.6 °F 53.6 °F 72% 30.31 in 10.0 mi Calm Calm - N/A   Mostly Cloudy
10:47 AM 64.4 °F 55.4 °F 73% 30.30 in 10.0 mi Variable 3.5 mph - N/A   Overcast
10:56 AM 64.9 °F 55.0 °F 70% 30.33 in 10.0 mi SSE 5.8 mph - N/A   Overcast
11:06 AM 66.2 °F 53.6 °F 64% 30.29 in 10.0 mi ESE 9.2 mph - N/A   Overcast
11:45 AM 68.0 °F 53.6 °F 60% 30.27 in 10.0 mi SE 9.2 mph - N/A   Scattered Clouds
11:56 AM 68.0 °F 53.1 °F 59% 30.30 in 10.0 mi Variable 5.8 mph - N/A   Scattered Clouds
12:56 PM 70.0 °F 53.1 °F 55% 30.27 in 10.0 mi South 6.9 mph - N/A   Scattered Clouds
1:56 PM 72.0 °F 51.1 °F 48% 30.25 in 10.0 mi Variable 5.8 mph - N/A   Partly Cloudy
2:56 PM 71.1 °F 51.1 °F 49% 30.25 in 10.0 mi SSW 6.9 mph - N/A   Partly Cloudy
3:56 PM 70.0 °F 52.0 °F 53% 30.25 in 10.0 mi SE 6.9 mph - N/A   Scattered Clouds
4:56 PM 63.0 °F 55.0 °F 75% 30.25 in 10.0 mi Calm Calm - N/A   Clear
5:56 PM 62.1 °F 53.1 °F 72% 30.25 in 10.0 mi SE 4.6 mph - N/A   Clear
6:56 PM 59.0 °F 53.1 °F 81% 30.26 in 10.0 mi Calm Calm - N/A   Clear
7:56 PM 55.9 °F 52.0 °F 87% 30.26 in 9.0 mi South 4.6 mph - N/A   Clear
8:56 PM 55.9 °F 52.0 °F 87% 30.27 in 10.0 mi SSE 4.6 mph - N/A   Partly Cloudy
9:56 PM 55.0 °F 52.0 °F 89% 30.27 in 10.0 mi Calm Calm - N/A   Clear
10:56 PM 55.9 °F 53.1 °F 90% 30.27 in 10.0 mi SSE 3.5 mph - N/A   Mostly Cloudy
11:56 PM 57.0 °F 54.0 °F 89% 30.27 in 10.0 mi Calm Calm - N/A   Clear